{"data":{"norad_id":62081,"epoch":"2026-05-25T03:44:48.899328Z","epoch_age_seconds":68334,"freshness":"FRESH","line1":"1 62081U 24219A   26145.15612152  .00000507  00000+0  87945-4 0  9994","line2":"2 62081  97.9020 304.6522 0004154  17.9304 342.2049 14.72291751 80366","mean_motion":14.72291751,"eccentricity":0.0004154,"inclination_deg":97.902,"raan_deg":304.6522,"arg_perigee_deg":17.9304,"mean_anomaly_deg":342.2049,"bstar":8.7945e-5,"rev_number":8036,"period_min":97.806701628392,"perigee_km":650.84037446217,"apogee_km":656.68247567372,"semimajor_km":7031.8984250679,"source":"CELESTRAK","updated_at":"2026-05-25T13:38:02.756914Z"}}